Погода в Шубенке

Россия / Алтайский край     52°38′59″N   85°05′30″E
темп.,
°C
ветер,
м/с
пор.,
м/с
влажн.,
%
обл.,
%
осадки,
мм/ч
давл.,
гПа
погр.,
м
7 мая, пт
пт701:00+16ююв4662100 0.0 100473
04:00+16ю3651100 0.0 100472
07:00+17зюз4958100 0.0 1006173
10:00+16зсз61069100 0.1 1009333
13:00+15зсз5977100 0.5 1012589
16:00+14зюз5878100 0.8 1014635
19:00+17юз5859100 0.8 1014442
22:00+12зюз2365100 0.0 101832
8 мая, сб
сб801:00+9зсз2260100 0.0 101916
04:00+8зсз226239 0.0 102119
07:00+8сз22640 0.0 102241
10:00+14зсз22460 0.0 1021653
13:00+17зсз33330 0.0 10201342
16:00+19сз34290 0.0 10191743
19:00+18ссв34390 0.0 1019484
22:00+13ю11480 0.0 101910
9 мая, вс
вс901:00+11ююз22575 0.0 101917
04:00+10юз22604 0.0 101910
07:00+11зюз246176 0.0 101983
10:00+17зюз34435 0.0 1018511
13:00+20сз3436100 0.0 10172125
16:00+21с4437100 0.0 10162221
19:00+18ссв5747100 0.0 1016417
22:00+13св61153100 0.0 1017304
10 мая, пн
пн1001:00+10всв51149100 0.0 1016256
04:00+8св511555 0.0 1014211
07:00+8св51058100 0.0 1014253
10:00+13св5745100 0.0 1012477
13:00+16св554299 0.0 1010830
16:00+18ссв6535100 0.0 10081471
19:00+14ссв694596 0.0 1009695
22:00+11с2458100 0.1 1010107
11 мая, вт
вт1101:00+10с6125544 0.0 1008318
04:00+6ссз59720 0.0 1012272
07:00+5сз59745 0.0 1013363
10:00+10сз56575 0.0 1014910
13:00+13сз5646100 0.0 10141947
16:00+13ссз674886 0.4 10151674
19:00+12сз5756100 0.8 10171407
22:00+8сз366655 0.0 1019106